"2016-01-21 00:00:00",1303131,14.81,359.3,6.477,1.479,10.47,101.6739,3.571,4.832,20.13,0,109.8,13.3,4.34,321.3
"2016-01-21 00:00:30",1303132,14.48,358.6,6.299,1.391,10.56,101.6748,3.573,4.813,20.28,0,109.8,13.3,4.34,320.6
"2016-01-21 00:01:00",1303133,13.44,0.513,6.434,1.306,10.47,101.6725,3.567,4.841,20.2,0,109.8,13.3,4.33,322.5
"2016-01-21 00:01:30",1303134,13.64,1.137,6.505,1.533,10.62,101.6624,3.541,4.814,20.39,0,109.8,13.3,4.31,323.1
"2016-01-21 00:02:00",1303135,11.77,2.959,6.412,1.554,10.22,101.655,3.522,4.802,20.61,0,109.8,13.3,4.29,325.0
"2016-01-21 00:02:30",1303136,11.37,2.216,6.626,1.683,9.89,101.644,3.494,4.771,20.83,0,109.8,13.3,4.26,324.2
"2016-01-21 00:03:00",1303137,12.46,1.513,6.523,1.67,10.05,101.6432,3.492,4.751,21.15,0,109.8,13.3,4.26,323.5
"2016-01-21 00:03:30",1303138,13.06,0.621,6.72,1.533,10.38,101.6279,3.453,4.727,21.35,0,109.8,13.3,4.22,322.6
"2016-01-21 00:04:00",1303139,12.97,1.205,6.334,1.626,10.25,101.6129,3.415,4.735,21.42,0,109.8,13.3,4.18,323.2
"2016-01-21 00:04:30",1303140,12.35,2.179,6.634,1.518,10.16,101.6127,3.414,4.731,21.54,0,109.8,13.3,4.18,324.2
"2016-01-21 00:05:00",1303141,12.41,0.919,6.885,1.823,9.93,101.6047,3.394,4.652,21.7,0,109.8,13.3,4.16,322.9
"2016-01-21 00:05:30",1303142,13.14,0.886,6.148,1.857,9.96,101.594,3.367,4.644,21.92,0,109.8,13.31,4.13,322.9
"2016-01-21 00:06:00",1303143,13.98,356.8,6.912,1.384,10.26,101.5798,3.331,4.622,21.93,0,109.8,13.31,4.09,318.8
"2016-01-21 00:06:30",1303144,13.56,359.5,6.273,1.316,10.35,101.5781,3.326,4.612,21.63,0,109.7,13.31,4.09,321.5
"2016-01-21 00:07:00",1303145,13.3,359.3,6.407,1.316,10.39,101.5699,3.305,4.601,21.5,0,109.8,13.31,4.07,321.3
"2016-01-21 00:07:30",1303146,14.11,359.8,6.33,1.377,9.78,101.555,3.267,4.552,21.82,0,109.8,13.31,4.03,321.8
"2016-01-21 00:08:00",1303147,14.81,358.4,6.519,1.319,10.28,101.5465,3.245,4.531,21.36,0,109.8,13.31,4.01,320.4
"2016-01-21 00:08:30",1303148,14.2,359.3,6.669,1.284,10.43,101.5442,3.24,4.529,21.41,0,109.8,13.31,4.00,321.3
"2016-01-21 00:09:00",1303149,14.6,358.5,6.388,1.353,10.33,101.5448,3.241,4.516,21.55,0,109.8,13.31,4.00,320.5
"2016-01-21 00:09:30",1303150,15.02,357.1,6.37,1.217,10.52,101.5411,3.232,4.495,21.02,0,109.8,13.31,4.00,319.1
"2016-01-21 00:10:00",1303151,15.37,357.7,5.782,1.251,10.58,101.5349,3.216,4.479,21.04,0,109.8,13.31,3.98,319.7
"2016-01-21 00:10:30",1303152,15.36,355.8,6.648,1.263,10.32,101.5318,3.208,4.461,20.89,0,109.8,13.31,3.97,317.8
"2016-01-21 00:11:00",1303153,15.11,356,6.445,1.236,10.78,101.5312,3.206,4.466,20.82,0,109.8,13.31,3.97,318.0
"2016-01-21 00:11:30",1303154,15.08,356.5,6.128,1.235,10.77,101.533,3.211,4.469,20.78,0,109.8,13.31,3.97,318.5
"2016-01-21 00:12:00",1303155,15.03,355.7,6.446,1.26,10.31,101.5353,3.217,4.458,20.73,0,109.8,13.31,3.98,317.7
"2016-01-21 00:12:30",1303156,15.02,355.4,6.345,1.203,10.39,101.5358,3.218,4.447,20.88,0,109.8,13.31,3.98,317.4
"2016-01-21 00:13:00",1303157,14.81,354.4,6.89,1.256,10.46,101.5389,3.226,4.446,20.91,0,109.8,13.31,3.99,316.4
"2016-01-21 00:13:30",1303158,14.89,356.5,6.196,1.241,10.54,101.5438,3.238,4.454,21.04,0,109.8,13.31,4.00,318.5
"2016-01-21 00:14:00",1303159,15.26,355.3,6.317,1.265,10.47,101.5454,3.243,4.461,21.02,0,109.8,13.31,4.01,317.3
"2016-01-21 00:14:30",1303160,14.96,353.8,6.588,1.219,10.56,101.5488,3.251,4.463,20.98,0,109.8,13.32,4.01,315.8
"2016-01-21 00:15:00",1303161,14.83,353.2,6.288,1.286,10.57,101.5511,3.257,4.478,20.91,0,109.8,13.32,4.02,315.2
"2016-01-21 00:15:30",1303162,14.6,353.2,6.652,1.192,10.28,101.5534,3.263,4.453,20.82,0,109.8,13.32,4.03,315.2
"2016-01-21 00:16:00",1303163,14.38,351.7,7.212,1.255,10.37,101.5528,3.262,4.427,20.7,0,109.8,13.32,4.02,313.7
"2016-01-21 00:16:30",1303164,14.22,351.3,6.779,1.313,10.57,101.5531,3.262,4.497,20.71,0,109.8,13.31,4.03,313.3
"2016-01-21 00:17:00",1303165,14.5,353.3,6.009,1.201,10.55,101.5537,3.264,4.497,20.24,0,109.8,13.31,4.03,315.3
"2016-01-21 00:17:30",1303166,14.67,351.8,6.642,1.222,10.33,101.5537,3.264,4.464,19.9,0,109.8,13.31,4.03,313.8
"2016-01-21 00:18:00",1303167,14.86,352.2,6.432,1.273,10.24,101.5545,3.266,4.488,19.63,0,109.8,13.31,4.03,314.2
"2016-01-21 00:18:30",1303168,14.69,351.3,6.371,1.273,10.48,101.5548,3.267,4.481,19.55,0,109.8,13.3,4.03,313.3
"2016-01-21 00:19:00",1303169,14.61,352.9,6.582,1.268,10.57,101.5545,3.266,4.466,19.77,0,109.8,13.3,4.03,314.9
"2016-01-21 00:19:30",1303170,14.44,350.6,6.385,1.259,10.43,101.5568,3.272,4.497,19.92,0,109.9,13.31,4.04,312.6
"2016-01-21 00:20:00",1303171,14.22,351.2,6.302,1.276,10.36,101.556,3.27,4.507,19.83,0,109.8,13.31,4.03,313.2
"2016-01-21 00:20:30",1303172,14.3,350.6,6.188,1.188,10.09,101.5574,3.273,4.454,19.79,0,109.8,13.31,4.04,312.6
"2016-01-21 00:21:00",1303173,13.98,349.2,6.19,1.212,10.16,101.558,3.275,4.479,19.77,0,109.8,13.3,4.04,311.2
"2016-01-21 00:21:30",1303174,13.87,347.5,6.745,1.356,10.24,101.5594,3.278,4.489,19.87,0,109.8,13.31,4.04,309.5
"2016-01-21 00:22:00",1303175,13.78,348,6.441,1.245,10.56,101.5588,3.277,4.496,19.85,0,109.8,13.32,4.04,310.0
"2016-01-21 00:22:30",1303176,13.31,347,6.432,1.196,10.54,101.5577,3.274,4.495,19.84,0,109.8,13.32,4.04,309.0
"2016-01-21 00:23:00",1303177,13.23,347.8,6.362,1.265,10.02,101.5555,3.268,4.489,19.94,0,109.8,13.32,4.03,309.8
"2016-01-21 00:23:30",1303178,13.4,347.1,6.774,1.188,10.24,101.5523,3.26,4.466,19.95,0,109.8,13.32,4.02,309.1
"2016-01-21 00:24:00",1303179,13.17,348.1,6.479,1.25,10.42,101.5464,3.245,4.476,19.96,0,109.8,13.32,4.01,310.1
"2016-01-21 00:24:30",1303180,12.81,348.9,6.705,1.3,10.17,101.5439,3.239,4.461,20.1,0,109.8,13.32,4.00,310.9
"2016-01-21 00:25:00",1303181,13.02,350.8,6.488,1.216,9.99,101.5424,3.235,4.491,19.98,0,109.8,13.32,4.00,312.8
"2016-01-21 00:25:30",1303182,12.96,351.9,6.227,1.209,9.93,101.5416,3.233,4.467,20.2,0,109.9,13.31,4.00,313.9
"2016-01-21 00:26:00",1303183,12.9,352,6.814,1.208,10.07,101.5351,3.216,4.447,20.33,0,109.8,13.32,3.98,314.0
"2016-01-21 00:26:30",1303184,13.2,354.6,6.442,1.304,9.74,101.53,3.203,4.475,20.26,0,109.8,13.32,3.97,316.6
"2016-01-21 00:27:00",1303185,13.45,350.7,6.48,1.24,9.95,101.5269,3.195,4.441,20.33,0,109.8,13.32,3.96,312.7
"2016-01-21 00:27:30",1303186,13.42,347.3,6.695,1.278,10.32,101.5272,3.196,4.431,20.12,0,109.8,13.32,3.96,309.3
"2016-01-21 00:28:00",1303187,12.99,347.2,6.471,1.241,10.09,101.5263,3.194,4.453,19.89,0,109.8,13.32,3.96,309.2
"2016-01-21 00:28:30",1303188,13.04,347.1,6.4,1.304,9.97,101.5266,3.195,4.415,19.81,0,109.8,13.32,3.96,309.1
"2016-01-21 00:29:00",1303189,13.14,348.7,6.313,1.253,10.23,101.5207,3.18,4.413,19.72,0,109.8,13.32,3.94,310.7
"2016-01-21 00:29:30",1303190,13.25,348.5,6.09,1.21,9.97,101.5114,3.156,4.433,19.68,0,109.8,13.32,3.92,310.5
"2016-01-21 00:30:00",1303191,13.42,348.6,6.885,1.202,10.24,101.5099,3.152,4.392,19.29,0,109.8,13.32,3.92,310.6
"2016-01-21 00:30:30",1303192,12.82,349.7,6.233,1.197,10.28,101.5097,3.151,4.415,19.31,0,109.8,13.32,3.91,311.7
"2016-01-21 00:31:00",1303193,12.23,348.4,6.447,1.263,9.86,101.5046,3.138,4.389,19.46,0,109.8,13.32,3.90,310.4
"2016-01-21 00:31:30",1303194,11.93,346,6.486,1.306,9.85,101.4967,3.118,4.367,19.52,0,109.8,13.32,3.88,308.0
"2016-01-21 00:32:00",1303195,11.84,348.2,6.258,1.275,10.21,101.4938,3.111,4.389,19.37,0,109.8,13.32,3.87,310.2
"2016-01-21 00:32:30",1303196,12.29,352.1,6.081,1.257,10.34,101.4935,3.11,4.399,19.29,0,109.8,13.32,3.87,314.1
"2016-01-21 00:33:00",1303197,12.11,352.9,6.742,1.236,9.91,101.4935,3.11,4.364,19.03,0,109.8,13.32,3.87,314.9
"2016-01-21 00:33:30",1303198,12.24,353.4,6.272,1.22,9.79,101.4935,3.11,4.349,19.01,0,109.8,13.32,3.87,315.4
"2016-01-21 00:34:00",1303199,12.38,352.4,6.654,1.319,9.69,101.4935,3.11,4.339,19.13,0,109.8,13.31,3.87,314.4
"2016-01-21 00:34:30",1303200,13.16,351,6.45,1.183,9.98,101.4935,3.11,4.344,19.86,0,109.8,13.31,3.87,313.0
"2016-01-21 00:35:00",1303201,12.94,351.5,6.261,1.236,9.93,101.4935,3.11,4.363,20.3,0,109.8,13.31,3.87,313.5
"2016-01-21 00:35:30",1303202,13.17,350.9,6.237,1.276,9.95,101.4887,3.098,4.373,20.37,0,109.8,13.31,3.86,312.9
"2016-01-21 00:36:00",1303203,13.23,349.3,6.264,1.157,9.83,101.4808,3.078,4.319,20.03,0,109.8,13.31,3.84,311.3
"2016-01-21 00:36:30",1303204,12.56,348.1,6.706,1.236,9.9,101.476,3.066,4.302,20.11,0,109.8,13.31,3.83,310.1
"2016-01-21 00:37:00",1303205,12.75,351.5,6.822,1.378,10.13,101.4709,3.053,4.34,20.01,0,109.8,13.32,3.82,313.5
"2016-01-21 00:37:30",1303206,13.2,353.7,6.61,1.179,10.21,101.4627,3.032,4.314,19.4,0,109.8,13.31,3.79,315.7
"2016-01-21 00:38:00",1303207,12.63,353.7,6.362,1.273,10.24,101.4596,3.024,4.297,19.19,0,109.8,13.32,3.79,315.7
"2016-01-21 00:38:30",1303208,12.63,353.8,6.237,1.345,9.79,101.4596,3.024,4.316,19.19,0,109.8,13.32,3.79,315.8
"2016-01-21 00:39:00",1303209,13.2,355.7,6.746,1.147,9.89,101.4596,3.024,4.282,19.17,0,109.8,13.32,3.79,317.7
"2016-01-21 00:39:30",1303210,13.59,355.9,6.556,1.252,10.21,101.4596,3.024,4.281,19.09,0,109.8,13.32,3.79,317.9
"2016-01-21 00:40:00",1303211,13.53,354.9,6.56,1.29,10.06,101.4596,3.024,4.285,19.13,0,109.8,13.32,3.79,316.9
"2016-01-21 00:40:30",1303212,13.8,354.3,6.495,1.235,9.89,101.4596,3.024,4.267,19.09,0,109.8,13.32,3.79,316.3
"2016-01-21 00:41:00",1303213,13.69,354,6.626,1.215,10.38,101.4596,3.024,4.27,18.99,0,109.8,13.32,3.79,316.0
"2016-01-21 00:41:30",1303214,13.81,353.4,6.134,1.294,9.86,101.4573,3.018,4.277,19.03,0,109.8,13.32,3.78,315.4
"2016-01-21 00:42:00",1303215,14.19,351.8,6.386,1.23,10.31,101.4534,3.008,4.267,19.13,0,109.8,13.32,3.77,313.8
"2016-01-21 00:42:30",1303216,14.37,352.3,6.228,1.29,10.33,101.4477,2.993,4.268,19.14,0,109.8,13.32,3.76,314.3
"2016-01-21 00:43:00",1303217,14.27,351.2,6.348,1.273,9.97,101.4457,2.988,4.233,19.08,0,109.8,13.32,3.75,313.2
"2016-01-21 00:43:30",1303218,14.26,350.2,6.374,1.214,9.96,101.4432,2.982,4.234,18.96,0,109.8,13.32,3.74,312.2
"2016-01-21 00:44:00",1303219,14.05,349.2,6.649,1.246,10.23,101.4426,2.98,4.219,18.77,0,109.8,13.32,3.74,311.2
"2016-01-21 00:44:30",1303220,13.86,351,6.069,1.262,10.46,101.4421,2.979,4.251,18.63,0,109.8,13.32,3.74,313.0
"2016-01-21 00:45:00",1303221,13.95,348,6.425,1.208,10.34,101.4418,2.978,4.25,18.79,0,109.8,13.32,3.74,310.0
"2016-01-21 00:45:30",1303222,13.5,348.1,6.933,1.317,9.8,101.4418,2.978,4.221,18.81,0,109.8,13.32,3.74,310.1
"2016-01-21 00:46:00",1303223,13.44,349.6,6.453,1.242,9.96,101.4409,2.976,4.238,18.69,0,109.8,13.32,3.74,311.6
"2016-01-21 00:46:30",1303224,13.44,349.7,6.621,1.299,10.22,101.4387,2.97,4.225,18.82,0,109.8,13.32,3.73,311.7
"2016-01-21 00:47:00",1303225,13.9,352.3,6.696,1.319,10.23,101.4398,2.973,4.227,18.65,0,109.8,13.32,3.74,314.3
"2016-01-21 00:47:30",1303226,13.79,356.1,6.067,1.301,10.47,101.4378,2.968,4.251,18.49,0,109.8,13.32,3.73,318.1
"2016-01-21 00:48:00",1303227,13.65,354.7,6.302,1.206,10.04,101.4373,2.967,4.222,18.21,0,109.8,13.32,3.73,316.7
"2016-01-21 00:48:30",1303228,13.19,354.8,6.645,1.238,9.69,101.4381,2.969,4.211,18.16,0,109.8,13.32,3.73,316.8
"2016-01-21 00:49:00",1303229,13.13,355.8,6.222,1.249,10.2,101.4361,2.964,4.223,18.3,0,109.8,13.32,3.73,317.8
"2016-01-21 00:49:30",1303230,12.92,356.4,6.443,1.274,10.16,101.4356,2.962,4.242,18.59,0,109.8,13.33,3.72,318.4
"2016-01-21 00:50:00",1303231,12.85,354.9,6.398,1.294,10.1,101.4333,2.956,4.216,18.53,0,109.8,13.32,3.72,316.9
"2016-01-21 00:50:30",1303232,13.15,356.8,6.434,1.228,9.77,101.4319,2.953,4.243,18.6,0,109.8,13.32,3.72,318.8
"2016-01-21 00:51:00",1303233,13.15,357.1,6.653,1.184,9.85,101.4293,2.946,4.219,18.63,0,109.8,13.32,3.71,319.1
"2016-01-21 00:51:30",1303234,12.91,356.4,6.563,1.263,10.08,101.4268,2.94,4.21,18.71,0,109.8,13.32,3.70,318.4
"2016-01-21 00:52:00",1303235,13,355.6,6.284,1.264,10.09,101.4271,2.941,4.225,18.66,0,109.8,13.32,3.70,317.6
"2016-01-21 00:52:30",1303236,12.97,354.4,6.459,1.342,9.56,101.4268,2.94,4.203,18.56,0,109.8,13.32,3.70,316.4
"2016-01-21 00:53:00",1303237,13.78,356,6.509,1.256,10.08,101.4274,2.941,4.197,18.57,0,109.8,13.32,3.70,318.0
"2016-01-21 00:53:30",1303238,14.19,355.9,6.094,1.246,9.82,101.4259,2.938,4.218,18.53,0,109.8,13.32,3.70,317.9
"2016-01-21 00:54:00",1303239,14.48,355.4,6.564,1.21,9.97,101.4262,2.938,4.187,18.36,0,109.8,13.32,3.70,317.4
"2016-01-21 00:54:30",1303240,14.62,356.2,6.563,1.278,10.21,101.4251,2.936,4.208,18.36,0,109.8,13.32,3.70,318.2
"2016-01-21 00:55:00",1303241,15.17,357.1,6.285,1.283,9.92,101.4183,2.918,4.201,18.36,0,109.8,13.32,3.68,319.1
"2016-01-21 00:55:30",1303242,15.51,356.5,6.455,1.255,9.86,101.4141,2.907,4.166,18.28,0,109.8,13.32,3.67,318.5
"2016-01-21 00:56:00",1303243,16.13,354.3,6.525,1.218,10.22,101.4153,2.911,4.181,17.82,0,109.8,13.32,3.67,316.3
"2016-01-21 00:56:30",1303244,15.23,354.6,6.529,1.308,10.49,101.415,2.91,4.155,17.69,0,109.8,13.33,3.67,316.6
"2016-01-21 00:57:00",1303245,15.31,354.9,6.285,1.248,10.21,101.4144,2.908,4.173,17.87,0,109.8,13.32,3.67,316.9
"2016-01-21 00:57:30",1303246,16.13,356.1,6.377,1.225,10.49,101.4156,2.911,4.162,18.02,0,109.8,13.33,3.67,318.1
"2016-01-21 00:58:00",1303247,16.62,354.9,6.407,1.29,10.48,101.4176,2.916,4.169,17.89,0,109.8,13.33,3.68,316.9
"2016-01-21 00:58:30",1303248,15.94,354.9,6.626,1.196,10.07,101.4173,2.916,4.134,17.81,0,109.8,13.33,3.68,316.9
"2016-01-21 00:59:00",1303249,16.01,356.6,6.787,1.316,10.04,101.4164,2.913,4.142,18.06,0,109.8,13.33,3.68,318.6
"2016-01-21 00:59:30",1303250,16.07,355.3,6.496,1.297,10.2,101.419,2.92,4.151,18.15,0,109.8,13.33,3.68,317.3
"2016-01-21 01:00:00",1303251,15.92,356.1,6.309,1.306,10.55,101.4184,2.918,4.177,18.25,0,109.8,13.33,3.68,318.1
"2016-01-21 01:00:30",1303252,15.65,357.4,6.48,1.259,10.44,101.4201,2.923,4.175,18.3,0,109.8,13.33,3.69,319.4
"2016-01-21 01:01:00",1303253,15.4,357,6.815,1.23,9.92,101.4193,2.921,4.144,18.47,0,109.8,13.33,3.68,319.0
"2016-01-21 01:01:30",1303254,15.32,358.3,6.44,1.217,10,101.4184,2.919,4.143,18.68,0,109.8,13.33,3.68,320.3
"2016-01-21 01:02:00",1303255,16.01,357.3,6.431,1.425,10.27,101.4199,2.922,4.132,18.78,0,109.8,13.33,3.68,319.3
"2016-01-21 01:02:30",1303256,16.14,356.5,6.628,1.433,10.11,101.4202,2.923,4.149,18.62,0,109.8,13.33,3.69,318.5
"2016-01-21 01:03:00",1303257,15.04,359.2,6.475,1.326,10.34,101.4176,2.916,4.176,19.07,0,109.8,13.33,3.68,321.2
"2016-01-21 01:03:30",1303258,14.94,357.9,6.412,1.249,9.76,101.4185,2.919,4.148,19.23,0,109.8,13.33,3.68,319.9
"2016-01-21 01:04:00",1303259,13.74,359.3,7.362,1.521,9.57,101.4162,2.913,4.13,19.37,0,109.8,13.33,3.68,321.3
"2016-01-21 01:04:30",1303260,15.33,359.3,6.58,1.569,10.1,101.4049,2.884,4.137,19.68,0,109.8,13.33,3.65,321.3
"2016-01-21 01:05:00",1303261,15.87,356.4,6.814,1.294,10.4,101.4046,2.883,4.137,18.97,0,109.8,13.33,3.65,318.4
"2016-01-21 01:05:30",1303262,15.86,358.5,6.508,1.318,10.22,101.4049,2.884,4.107,18.78,0,109.8,13.33,3.65,320.5
"2016-01-21 01:06:00",1303263,15.58,359.6,6.348,1.215,10.07,101.4015,2.875,4.107,19.07,0,109.8,13.33,3.64,321.6
"2016-01-21 01:06:30",1303264,15.97,0.656,6.277,1.395,9.83,101.3908,2.848,4.12,19.02,0,109.8,13.32,3.61,322.7
"2016-01-21 01:07:00",1303265,14.9,1.954,6.11,1.342,10.17,101.3899,2.846,4.084,19.08,0,109.8,13.32,3.61,324.0
"2016-01-21 01:07:30",1303266,15.66,0.075,6.349,1.297,10.18,101.3908,2.848,4.089,19.12,0,109.8,13.32,3.61,322.1
"2016-01-21 01:08:00",1303267,15.08,359.2,6.698,1.518,9.51,101.3835,2.829,4.082,19.3,0,109.8,13.32,3.59,321.2
"2016-01-21 01:08:30",1303268,15.45,357.5,7.001,1.285,10.3,101.3758,2.81,4.062,19.16,0,109.8,13.32,3.57,319.5
"2016-01-21 01:09:00",1303269,14.81,358.6,6.495,1.304,10.08,101.3747,2.807,4.062,19.09,0,109.8,13.32,3.57,320.6
"2016-01-21 01:09:30",1303270,14.74,359.4,6.331,1.274,9.68,101.375,2.808,4.048,19.47,0,109.8,13.32,3.57,321.4
"2016-01-21 01:10:00",1303271,16.04,358,6.337,1.413,10.32,101.375,2.808,4.046,19.46,0,109.8,13.32,3.57,320.0
"2016-01-21 01:10:30",1303272,15.27,357.8,7.299,1.402,10.02,101.3753,2.808,4.033,18.81,0,109.8,13.32,3.57,319.8
"2016-01-21 01:11:00",1303273,15.95,356.8,6.558,1.358,9.86,101.3744,2.806,4,18.9,0,109.8,13.32,3.57,318.8
"2016-01-21 01:11:30",1303274,15.18,358.5,6.337,1.27,10.16,101.3631,2.777,4.01,18.85,0,109.8,13.32,3.54,320.5
"2016-01-21 01:12:00",1303275,15.47,359,6.515,1.305,10.36,101.3597,2.769,4.009,19,0,109.8,13.33,3.53,321.0
"2016-01-21 01:12:30",1303276,15.78,359.3,6.805,1.318,9.96,101.3594,2.768,4.011,19.06,0,109.8,13.33,3.53,321.3
"2016-01-21 01:13:00",1303277,16.32,357.7,6.33,1.254,9.89,101.3591,2.767,3.983,19.05,0,109.8,13.33,3.53,319.7
"2016-01-21 01:13:30",1303278,16.68,357.1,6.291,1.249,9.96,101.3575,2.763,3.992,18.97,0,109.8,13.33,3.52,319.1
"2016-01-21 01:14:00",1303279,16.28,356.5,6.576,1.378,10.06,101.3504,2.745,3.968,19.1,0,109.8,13.33,3.51,318.5
"2016-01-21 01:14:30",1303280,16.07,355.8,6.445,1.379,10.25,101.3473,2.737,3.994,19.24,0,109.7,13.33,3.50,317.8
"2016-01-21 01:15:00",1303281,16.07,356,6.488,1.369,10.21,101.3427,2.725,3.975,19.26,0,109.8,13.33,3.49,318.0
"2016-01-21 01:15:30",1303282,16,355.7,6.025,1.257,9.8,101.3436,2.728,3.974,19.25,0,109.8,13.33,3.49,317.7
"2016-01-21 01:16:00",1303283,15.64,354.9,6.07,1.149,9.92,101.3433,2.727,3.955,19.28,0,109.8,13.33,3.49,316.9
"2016-01-21 01:16:30",1303284,15.61,353.1,6.504,1.335,9.96,101.3425,2.725,3.938,19.23,0,109.8,13.33,3.49,315.1
"2016-01-21 01:17:00",1303285,15.63,352.6,6.515,1.21,10.22,101.3422,2.724,3.945,18.77,0,109.8,13.33,3.49,314.6
"2016-01-21 01:17:30",1303286,15.1,354.2,6.012,1.267,9.85,101.3379,2.713,3.979,18.95,0,109.8,13.33,3.47,316.2
"2016-01-21 01:18:00",1303287,15.08,353.8,6.316,1.307,9.74,101.3331,2.701,3.946,19.36,0,109.9,13.33,3.46,315.8
"2016-01-21 01:18:30",1303288,15.39,351.3,6.411,1.268,10.11,101.3278,2.687,3.944,19.2,0,109.8,13.33,3.45,313.3
"2016-01-21 01:19:00",1303289,15.13,352.3,6.209,1.259,9.77,101.3258,2.682,3.948,19.37,0,109.8,13.33,3.44,314.3
"2016-01-21 01:19:30",1303290,15.14,353.2,7.206,1.334,9.62,101.3229,2.675,3.914,19.3,0,109.8,13.33,3.44,315.2
"2016-01-21 01:20:00",1303291,14.5,352.9,6.434,1.365,10.14,101.3184,2.663,3.913,19.52,0,109.8,13.33,3.42,314.9
"2016-01-21 01:20:30",1303292,14.51,353,6.279,1.338,10.06,101.3111,2.645,3.911,19.45,0,109.8,13.33,3.41,315.0
"2016-01-21 01:21:00",1303293,13.75,354.5,6.536,1.215,9.65,101.3082,2.637,3.894,19.74,0,109.8,13.33,3.40,316.5
"2016-01-21 01:21:30",1303294,14.19,352.3,6.832,1.214,9.9,101.3099,2.642,3.902,19.75,0,109.8,13.33,3.40,314.3
"2016-01-21 01:22:00",1303295,13.9,353,6.235,1.231,9.51,101.3105,2.643,3.914,19.94,0,109.8,13.33,3.40,315.0
"2016-01-21 01:22:30",1303296,14.65,353.6,6.146,1.212,9.84,101.3099,2.642,3.87,19.95,0,109.8,13.33,3.40,315.6
"2016-01-21 01:23:00",1303297,14.8,353.6,6.589,1.204,10.01,101.3009,2.619,3.888,19.97,0,109.8,13.33,3.38,315.6
"2016-01-21 01:23:30",1303298,14.63,352.2,6.755,1.392,9.44,101.2944,2.602,3.868,19.83,0,109.8,13.33,3.36,314.2
"2016-01-21 01:24:00",1303299,14.74,353.2,6.432,1.224,9.86,101.2927,2.598,3.868,19.64,0,109.8,13.33,3.36,315.2
"2016-01-21 01:24:30",1303300,14.45,352.3,6.463,1.298,10.05,101.2907,2.593,3.847,19.62,0,109.8,13.32,3.35,314.3
"2016-01-21 01:25:00",1303301,14,353.6,6.522,1.299,9.93,101.285,2.578,3.881,19.53,0,109.8,13.32,3.34,315.6
"2016-01-21 01:25:30",1303302,13.82,354.9,6.308,1.219,10.04,101.2785,2.562,3.845,19.52,0,109.8,13.33,3.32,316.9
"2016-01-21 01:26:00",1303303,13.61,352.8,6.258,1.265,9.64,101.2754,2.554,3.826,19.67,0,109.8,13.32,3.31,314.8
"2016-01-21 01:26:30",1303304,13.09,353,6.523,1.262,9.31,101.2751,2.553,3.803,19.73,0,109.8,13.33,3.31,315.0
"2016-01-21 01:27:00",1303305,13.2,353,6.139,1.402,9.77,101.2746,2.551,3.814,20.02,0,109.8,13.32,3.31,315.0
"2016-01-21 01:27:30",1303306,13.79,352.1,6.705,1.283,9.85,101.2757,2.554,3.829,20.02,0,109.8,13.32,3.32,314.1
"2016-01-21 01:28:00",1303307,13.4,352.7,6.199,1.309,9.55,101.2709,2.542,3.819,20.39,0,109.8,13.33,3.30,314.7
"2016-01-21 01:28:30",1303308,13.64,353.4,6.639,1.23,9.3,101.2601,2.515,3.801,20.55,0,109.8,13.33,3.28,315.4
"2016-01-21 01:29:00",1303309,13.66,354.5,6.584,1.214,9.47,101.2579,2.509,3.794,20.57,0,109.8,13.33,3.27,316.5
"2016-01-21 01:29:30",1303310,13.15,353.3,6.396,1.245,9.43,101.257,2.507,3.764,20.79,0,109.8,13.33,3.27,315.3
"2016-01-21 01:30:00",1303311,13.47,350.9,6.198,1.275,9.6,101.2511,2.491,3.789,20.98,0,109.8,13.33,3.25,312.9
"2016-01-21 01:30:30",1303312,13.25,348.7,6.483,1.297,9.43,101.2415,2.467,3.774,20.97,0,109.7,13.33,3.23,310.7
"2016-01-21 01:31:00",1303313,13.16,348.4,6.167,1.278,9.32,101.2392,2.461,3.75,21.41,0,109.8,13.33,3.22,310.4
"2016-01-21 01:31:30",1303314,12.28,347.9,6.766,1.201,9.1,101.2378,2.458,3.724,21.68,0,109.8,13.33,3.22,309.9
"2016-01-21 01:32:00",1303315,12.05,349.6,7.269,1.363,9.17,101.2256,2.426,3.735,21.62,0,109.8,13.33,3.19,311.6
"2016-01-21 01:32:30",1303316,12.07,348.1,7.129,1.211,9.54,101.2166,2.403,3.706,21.46,0,109.8,13.33,3.16,310.1
"2016-01-21 01:33:00",1303317,12.12,345.5,6.685,1.248,9.23,101.2092,2.385,3.708,21.39,0,109.8,13.33,3.14,307.5
"2016-01-21 01:33:30",1303318,12.04,343.9,6.57,1.234,9.39,101.2072,2.38,3.665,21.51,0,109.8,13.33,3.14,305.9
"2016-01-21 01:34:00",1303319,11.85,344.8,5.92,1.302,9.25,101.2067,2.378,3.691,21.73,0,109.8,13.34,3.14,306.8
"2016-01-21 01:34:30",1303320,11.65,343.2,6.198,1.181,9.22,101.2064,2.377,3.656,21.79,0,109.8,13.33,3.14,305.2
"2016-01-21 01:35:00",1303321,11.54,344.8,6.407,1.346,9.21,101.1945,2.347,3.635,21.94,0,109.7,13.33,3.11,306.8
"2016-01-21 01:35:30",1303322,11.75,343.8,6.587,1.265,8.88,101.1923,2.341,3.63,22.23,0,109.7,13.33,3.10,305.8
"2016-01-21 01:36:00",1303323,11.41,344.2,6.972,1.251,8.95,101.1858,2.325,3.628,22.5,0,109.8,13.34,3.09,306.2
"2016-01-21 01:36:30",1303324,11.58,344.8,6.714,1.31,9.06,101.1779,2.305,3.61,22.56,0,109.7,13.34,3.06,306.8
"2016-01-21 01:37:00",1303325,11.74,345.1,6.198,1.288,9.08,101.1779,2.305,3.632,22.77,0,109.8,13.34,3.06,307.1
"2016-01-21 01:37:30",1303326,12.13,345.3,6.661,1.216,9.34,101.1759,2.3,3.611,22.79,0,109.7,13.34,3.06,307.3
"2016-01-21 01:38:00",1303327,11.85,345.8,6.263,1.256,9.04,101.1657,2.274,3.57,22.76,0,109.8,13.34,3.03,307.8
"2016-01-21 01:38:30",1303328,11.69,344.6,6.953,1.221,9.01,101.1629,2.266,3.567,22.76,0,109.7,13.34,3.03,306.6
"2016-01-21 01:39:00",1303329,11.1,343.6,6.236,1.267,8.88,101.1612,2.262,3.554,22.75,0,109.7,13.34,3.02,305.6
"2016-01-21 01:39:30",1303330,11.15,344.5,6.295,1.284,9.35,101.1516,2.238,3.537,22.69,0,109.7,13.33,3.00,306.5
"2016-01-21 01:40:00",1303331,11.22,345.2,6.083,1.236,9.3,101.1473,2.227,3.544,22.59,0,109.7,13.33,2.99,307.2
"2016-01-21 01:40:30",1303332,11.53,343.5,6.556,1.223,8.61,101.1451,2.221,3.487,22.52,0,109.7,13.33,2.98,305.5
"2016-01-21 01:41:00",1303333,11.77,342.4,6.496,1.206,8.61,101.1352,2.196,3.496,22.6,0,109.7,13.33,2.96,304.4
"2016-01-21 01:41:30",1303334,11.44,343.2,6.47,1.323,9.04,101.1304,2.183,3.493,22.74,0,109.7,13.33,2.94,305.2
"2016-01-21 01:42:00",1303335,11.25,343.8,6.478,1.278,8.93,101.125,2.17,3.467,22.77,0,109.7,13.33,2.93,305.8
"2016-01-21 01:42:30",1303336,11.23,344.1,6.362,1.229,9.18,101.1157,2.146,3.453,22.75,0,109.7,13.33,2.91,306.1
"2016-01-21 01:43:00",1303337,11.08,345.8,6.117,1.158,8.94,101.1125,2.138,3.481,22.72,0,109.7,13.33,2.90,307.8
"2016-01-21 01:43:30",1303338,11.16,344.3,6.697,1.232,8.47,101.1145,2.143,3.43,22.77,0,109.7,13.33,2.90,306.3
"2016-01-21 01:44:00",1303339,11.29,343.3,6.415,1.351,8.85,101.1114,2.135,3.418,22.79,0,109.7,13.33,2.89,305.3
"2016-01-21 01:44:30",1303340,10.75,342.3,6.748,1.201,8.89,101.1009,2.108,3.407,22.92,0,109.7,13.33,2.87,304.3
"2016-01-21 01:45:00",1303341,11.34,344.4,6.44,1.221,8.49,101.0944,2.092,3.365,23.11,0,109.7,13.33,2.85,306.4
"2016-01-21 01:45:30",1303342,11.7,343.8,6.833,1.203,8.79,101.0919,2.085,3.381,23.21,0,109.7,13.33,2.84,305.8
"2016-01-21 01:46:00",1303343,11.28,343.4,6.515,1.25,8.56,101.0817,2.059,3.41,23.18,0,109.7,13.34,2.82,305.4
"2016-01-21 01:46:30",1303344,12.11,340.4,6.349,1.164,8.85,101.0797,2.054,3.355,23.12,0,109.7,13.34,2.81,302.4
"2016-01-21 01:47:00",1303345,12.12,339.3,6.749,1.263,9.07,101.0763,2.046,3.367,22.97,0,109.7,13.34,2.80,301.3
"2016-01-21 01:47:30",1303346,12.04,339,6.536,1.33,8.67,101.0658,2.019,3.342,22.75,0,109.7,13.34,2.78,301.0
"2016-01-21 01:48:00",1303347,12.78,338.9,6.272,1.149,8.71,101.0599,2.004,3.327,22.62,0,109.7,13.34,2.76,300.9